Year,Month,Day,Hour,Minute,Value (Times are PST for windgust in km/hr)
2010,06,04,00,06,1.60
2010,06,04,00,07,3.20
2010,06,04,00,08,1.60
2010,06,04,00,09,1.60
2010,06,04,00,15,1.60
2010,06,04,00,16,1.60
2010,06,04,00,17,3.20
2010,06,04,00,18,3.20
2010,06,04,00,19,1.60
2010,06,04,00,20,3.20
2010,06,04,00,21,1.60
2010,06,04,00,23,1.60
2010,06,04,00,42,1.60
2010,06,04,00,50,1.60
2010,06,04,00,51,1.60
2010,06,04,00,58,1.60
2010,06,04,00,59,1.60
2010,06,04,01,04,1.60
2010,06,04,01,05,1.60
2010,06,04,01,17,1.60
2010,06,04,01,18,1.60
2010,06,04,01,19,3.20
2010,06,04,01,20,1.60
2010,06,04,01,21,1.60
2010,06,04,01,25,1.60
2010,06,04,01,26,1.60
2010,06,04,01,32,1.60
2010,06,04,02,20,1.60
2010,06,04,02,21,1.60
2010,06,04,02,22,1.60
2010,06,04,02,23,1.60
2010,06,04,02,24,1.60
2010,06,04,02,25,1.60
2010,06,04,02,26,1.60
2010,06,04,02,57,1.60
2010,06,04,02,59,1.60
2010,06,04,03,01,1.60
2010,06,04,06,14,1.60
2010,06,04,06,15,1.60
2010,06,04,06,16,4.80
2010,06,04,06,17,1.60
2010,06,04,06,18,1.60
2010,06,04,06,36,1.60
2010,06,04,06,37,1.60
2010,06,04,06,41,1.60
2010,06,04,07,02,1.60
2010,06,04,07,07,1.60
2010,06,04,07,12,1.60
2010,06,04,07,15,1.60
2010,06,04,07,17,1.60
2010,06,04,07,23,1.60
2010,06,04,07,24,1.60
2010,06,04,07,25,1.60
2010,06,04,07,26,1.60
2010,06,04,07,29,1.60
2010,06,04,07,32,1.60
2010,06,04,07,33,1.60
2010,06,04,07,37,1.60
2010,06,04,07,38,1.60
2010,06,04,07,40,1.60
2010,06,04,07,41,4.80
2010,06,04,07,42,1.60
2010,06,04,07,43,1.60
2010,06,04,07,44,1.60
2010,06,04,07,45,3.20
2010,06,04,07,46,1.60
2010,06,04,07,47,3.20
2010,06,04,07,48,4.80
2010,06,04,07,49,1.60
2010,06,04,07,50,1.60
2010,06,04,07,51,1.60
2010,06,04,07,52,1.60
2010,06,04,07,53,1.60
2010,06,04,07,54,1.60
2010,06,04,07,55,1.60
2010,06,04,07,56,1.60
2010,06,04,07,57,1.60
2010,06,04,07,58,3.20
2010,06,04,07,59,3.20
2010,06,04,08,01,1.60
2010,06,04,08,02,1.60
2010,06,04,08,03,1.60
2010,06,04,08,04,1.60
2010,06,04,08,05,1.60
2010,06,04,08,07,1.60
2010,06,04,08,10,1.60
2010,06,04,08,13,1.60
2010,06,04,08,14,3.20
2010,06,04,08,15,1.60
2010,06,04,08,17,1.60
2010,06,04,08,18,1.60
2010,06,04,08,19,1.60
2010,06,04,08,20,1.60
2010,06,04,08,21,3.20
2010,06,04,08,22,1.60
2010,06,04,08,23,1.60
2010,06,04,08,24,8.10
2010,06,04,08,25,6.40
2010,06,04,08,26,1.60
2010,06,04,08,27,3.20
2010,06,04,08,28,1.60
2010,06,04,08,29,3.20
2010,06,04,08,31,3.20
2010,06,04,08,32,1.60
2010,06,04,08,33,1.60
2010,06,04,08,34,1.60
2010,06,04,08,36,1.60
2010,06,04,08,37,1.60
2010,06,04,08,38,1.60
2010,06,04,08,40,1.60
2010,06,04,08,41,1.60
2010,06,04,08,42,1.60
2010,06,04,08,43,3.20
2010,06,04,08,44,1.60
2010,06,04,08,45,1.60
2010,06,04,08,48,1.60
2010,06,04,09,01,1.60
2010,06,04,09,09,1.60
2010,06,04,09,18,1.60
2010,06,04,09,21,1.60
2010,06,04,09,23,1.60
2010,06,04,09,29,1.60
2010,06,04,09,33,1.60
2010,06,04,09,35,1.60
2010,06,04,09,36,1.60
2010,06,04,09,39,1.60
2010,06,04,09,43,1.60
2010,06,04,09,44,1.60
2010,06,04,09,45,1.60
2010,06,04,09,52,1.60
2010,06,04,09,53,1.60
2010,06,04,09,54,1.60
2010,06,04,09,55,1.60
2010,06,04,10,03,1.60
2010,06,04,10,04,3.20
2010,06,04,10,05,1.60
2010,06,04,10,06,1.60
2010,06,04,10,08,3.20
2010,06,04,10,09,1.60
2010,06,04,10,11,1.60
2010,06,04,10,12,4.80
2010,06,04,10,13,3.20
2010,06,04,10,14,6.40
2010,06,04,10,15,1.60
2010,06,04,10,16,1.60
2010,06,04,10,20,4.80
2010,06,04,10,21,4.80
2010,06,04,10,22,1.60
2010,06,04,10,23,3.20
2010,06,04,10,24,1.60
2010,06,04,10,25,1.60
2010,06,04,10,26,1.60
2010,06,04,10,29,1.60
2010,06,04,10,31,1.60
2010,06,04,10,32,1.60
2010,06,04,10,36,1.60
2010,06,04,10,41,1.60
2010,06,04,10,43,1.60
2010,06,04,10,44,1.60
2010,06,04,10,45,3.20
2010,06,04,10,46,1.60
2010,06,04,10,47,1.60
2010,06,04,10,49,1.60
2010,06,04,10,50,1.60
2010,06,04,10,51,4.80
2010,06,04,10,52,1.60
2010,06,04,10,53,3.20
2010,06,04,10,54,4.80
2010,06,04,10,55,6.40
2010,06,04,10,56,4.80
2010,06,04,10,57,8.10
2010,06,04,10,58,1.60
2010,06,04,10,59,4.80
2010,06,04,11,00,4.80
2010,06,04,11,01,1.60
2010,06,04,11,02,6.40
2010,06,04,11,03,4.80
2010,06,04,11,04,1.60
2010,06,04,11,05,3.20
2010,06,04,11,06,1.60
2010,06,04,11,07,1.60
2010,06,04,11,08,1.60
2010,06,04,11,09,1.60
2010,06,04,11,11,4.80
2010,06,04,11,12,3.20
2010,06,04,11,13,3.20
2010,06,04,11,14,1.60
2010,06,04,11,15,1.60
2010,06,04,11,17,4.80
2010,06,04,11,18,3.20
2010,06,04,11,23,1.60
2010,06,04,11,24,1.60
2010,06,04,11,25,1.60
2010,06,04,11,26,1.60
2010,06,04,11,27,6.40
2010,06,04,11,28,3.20
2010,06,04,11,29,1.60
2010,06,04,11,31,1.60
2010,06,04,11,33,3.20
2010,06,04,11,34,4.80
2010,06,04,11,35,3.20
2010,06,04,11,36,1.60
2010,06,04,11,37,1.60
2010,06,04,11,38,8.10
2010,06,04,11,39,6.40
2010,06,04,11,40,1.60
2010,06,04,11,41,1.60
2010,06,04,11,42,6.40
2010,06,04,11,43,9.60
2010,06,04,11,44,4.80
2010,06,04,11,45,1.60
2010,06,04,11,46,3.20
2010,06,04,11,47,3.20
2010,06,04,11,48,1.60
2010,06,04,11,49,1.60
2010,06,04,11,50,1.60
2010,06,04,11,51,3.20
2010,06,04,11,52,1.60
2010,06,04,11,54,6.40
2010,06,04,11,55,4.80
2010,06,04,11,57,1.60
2010,06,04,11,58,1.60
2010,06,04,11,59,1.60
2010,06,04,12,00,6.40
2010,06,04,12,01,3.20
2010,06,04,12,03,1.60
2010,06,04,12,04,1.60
2010,06,04,12,05,4.80
2010,06,04,12,06,1.60
2010,06,04,12,07,4.80
2010,06,04,12,08,1.60
2010,06,04,12,13,4.80
2010,06,04,12,14,4.80
2010,06,04,12,15,4.80
2010,06,04,12,16,3.20
2010,06,04,12,17,3.20
2010,06,04,12,18,3.20
2010,06,04,12,19,3.20
2010,06,04,12,20,3.20
2010,06,04,12,21,3.20
2010,06,04,12,22,3.20
2010,06,04,12,23,1.60
2010,06,04,12,24,1.60
2010,06,04,12,25,3.20
2010,06,04,12,26,6.40
2010,06,04,12,27,9.60
2010,06,04,12,28,4.80
2010,06,04,12,29,4.80
2010,06,04,12,30,4.80
2010,06,04,12,32,8.10
2010,06,04,12,33,3.20
2010,06,04,12,34,9.60
2010,06,04,12,35,4.80
2010,06,04,12,36,6.40
2010,06,04,12,37,3.20
2010,06,04,12,38,3.20
2010,06,04,12,39,8.10
2010,06,04,12,40,6.40
2010,06,04,12,41,8.10
2010,06,04,12,42,6.40
2010,06,04,12,43,8.10
2010,06,04,12,44,4.80
2010,06,04,12,45,3.20
2010,06,04,12,46,6.40
2010,06,04,12,47,3.20
2010,06,04,12,48,8.10
2010,06,04,12,49,8.10
2010,06,04,12,50,8.10
2010,06,04,12,51,6.40
2010,06,04,12,52,6.40
2010,06,04,12,53,6.40
2010,06,04,12,54,8.10
2010,06,04,12,55,6.40
2010,06,04,12,56,6.40
2010,06,04,12,57,6.40
2010,06,04,12,58,4.80
2010,06,04,12,59,6.40
2010,06,04,13,00,9.60
2010,06,04,13,01,4.80
2010,06,04,13,02,8.10
2010,06,04,13,03,9.60
2010,06,04,13,04,1.60
2010,06,04,13,05,3.20
2010,06,04,13,06,3.20
2010,06,04,13,07,6.40
2010,06,04,13,08,9.60
2010,06,04,13,09,4.80
2010,06,04,13,10,8.10
2010,06,04,13,11,8.10
2010,06,04,13,12,9.60
2010,06,04,13,13,11.30
2010,06,04,13,14,11.30
2010,06,04,13,15,4.80
2010,06,04,13,16,1.60
2010,06,04,13,17,4.80
2010,06,04,13,18,3.20
2010,06,04,13,19,4.80
2010,06,04,13,20,3.20
2010,06,04,13,21,11.30
2010,06,04,13,22,8.10
2010,06,04,13,23,6.40
2010,06,04,13,24,6.40
2010,06,04,13,25,3.20
2010,06,04,13,26,6.40
2010,06,04,13,27,3.20
2010,06,04,13,28,4.80
2010,06,04,13,29,6.40
2010,06,04,13,30,6.40
2010,06,04,13,31,3.20
2010,06,04,13,32,4.80
2010,06,04,13,33,3.20
2010,06,04,13,34,6.40
2010,06,04,13,35,1.60
2010,06,04,13,36,6.40
2010,06,04,13,37,4.80
2010,06,04,13,38,4.80
2010,06,04,13,39,8.10
2010,06,04,13,40,6.40
2010,06,04,13,41,1.60
2010,06,04,13,42,4.80
2010,06,04,13,43,6.40
2010,06,04,13,44,6.40
2010,06,04,13,45,3.20
2010,06,04,13,46,3.20
2010,06,04,13,47,4.80
2010,06,04,13,48,6.40
2010,06,04,13,49,3.20
2010,06,04,13,50,6.40
2010,06,04,13,51,6.40
2010,06,04,13,52,11.30
2010,06,04,13,53,1.60
2010,06,04,13,54,9.60
2010,06,04,13,55,9.60
2010,06,04,13,56,8.10
2010,06,04,13,57,6.40
2010,06,04,13,58,9.60
2010,06,04,13,59,9.60
2010,06,04,14,00,6.40
2010,06,04,14,01,3.20
2010,06,04,14,02,4.80
2010,06,04,14,03,6.40
2010,06,04,14,04,8.10
2010,06,04,14,05,9.60
2010,06,04,14,06,4.80
2010,06,04,14,07,6.40
2010,06,04,14,08,12.90
2010,06,04,14,09,11.30
2010,06,04,14,10,11.30
2010,06,04,14,11,16.10
2010,06,04,14,12,16.10
2010,06,04,14,13,8.10
2010,06,04,14,14,22.50
2010,06,04,14,15,19.30
2010,06,04,14,16,14.50
2010,06,04,14,17,11.30
2010,06,04,14,18,16.10
2010,06,04,14,19,11.30
2010,06,04,14,20,19.30
2010,06,04,14,21,16.10
2010,06,04,14,22,6.40
2010,06,04,14,23,14.50
2010,06,04,14,24,12.90
2010,06,04,14,25,20.90
2010,06,04,14,26,17.70
2010,06,04,14,27,14.50
2010,06,04,14,28,20.90
2010,06,04,14,29,11.30
2010,06,04,14,30,9.60
2010,06,04,14,31,11.30
2010,06,04,14,32,14.50
2010,06,04,14,33,12.90
2010,06,04,14,34,11.30
2010,06,04,14,35,17.70
2010,06,04,14,36,16.10
2010,06,04,14,37,16.10
2010,06,04,14,38,19.30
2010,06,04,14,39,9.60
2010,06,04,14,40,16.10
2010,06,04,14,41,20.90
2010,06,04,14,42,17.70
2010,06,04,14,43,11.30
2010,06,04,14,44,11.30
2010,06,04,14,45,11.30
2010,06,04,14,46,8.10
2010,06,04,14,47,16.10
2010,06,04,14,48,11.30
2010,06,04,14,49,11.30
2010,06,04,14,50,8.10
2010,06,04,14,51,4.80
2010,06,04,14,52,17.70
2010,06,04,14,53,14.50
2010,06,04,14,54,14.50
2010,06,04,14,55,16.10
2010,06,04,14,56,12.90
2010,06,04,14,57,9.60
2010,06,04,14,58,16.10
2010,06,04,14,59,20.90
2010,06,04,15,00,14.50
2010,06,04,15,01,9.60
2010,06,04,15,02,22.50
2010,06,04,15,03,16.10
2010,06,04,15,04,19.30
2010,06,04,15,05,19.30
2010,06,04,15,06,14.50
2010,06,04,15,07,11.30
2010,06,04,15,08,20.90
2010,06,04,15,09,12.90
2010,06,04,15,10,6.40
2010,06,04,15,11,11.30
2010,06,04,15,12,14.50
2010,06,04,15,13,11.30
2010,06,04,15,14,22.50
2010,06,04,15,15,17.70
2010,06,04,15,16,14.50
2010,06,04,15,17,8.10
2010,06,04,15,18,17.70
2010,06,04,15,19,16.10
2010,06,04,15,20,11.30
2010,06,04,15,21,14.50
2010,06,04,15,22,8.10
2010,06,04,15,23,17.70
2010,06,04,15,24,16.10
2010,06,04,15,25,19.30
2010,06,04,15,26,9.60
2010,06,04,15,27,20.90
2010,06,04,15,28,19.30
2010,06,04,15,29,17.70
2010,06,04,15,30,22.50
2010,06,04,15,31,16.10
2010,06,04,15,32,20.90
2010,06,04,15,33,20.90
2010,06,04,15,34,11.30
2010,06,04,15,35,6.40
2010,06,04,15,36,11.30
2010,06,04,15,37,16.10
2010,06,04,15,38,11.30
2010,06,04,15,39,4.80
2010,06,04,15,40,4.80
2010,06,04,15,41,8.10
2010,06,04,15,42,11.30
2010,06,04,15,43,14.50
2010,06,04,15,44,14.50
2010,06,04,15,45,11.30
2010,06,04,15,46,9.60
2010,06,04,15,47,8.10
2010,06,04,15,48,17.70
2010,06,04,15,49,12.90
2010,06,04,15,50,19.30
2010,06,04,15,51,16.10
2010,06,04,15,52,11.30
2010,06,04,15,53,11.30
2010,06,04,15,54,14.50
2010,06,04,15,55,16.10
2010,06,04,15,56,14.50
2010,06,04,15,57,16.10
2010,06,04,15,58,16.10
2010,06,04,15,59,11.30
2010,06,04,16,00,20.90
2010,06,04,16,01,17.70
2010,06,04,16,02,8.10
2010,06,04,16,03,14.50
2010,06,04,16,04,19.30
2010,06,04,16,05,22.50
2010,06,04,16,06,19.30
2010,06,04,16,07,12.90
2010,06,04,16,08,16.10
2010,06,04,16,09,16.10
2010,06,04,16,10,17.70
2010,06,04,16,11,11.30
2010,06,04,16,12,19.30
2010,06,04,16,13,17.70
2010,06,04,16,14,16.10
2010,06,04,16,15,14.50
2010,06,04,16,16,19.30
2010,06,04,16,17,11.30
2010,06,04,16,18,16.10
2010,06,04,16,19,16.10
2010,06,04,16,20,16.10
2010,06,04,16,21,11.30
2010,06,04,16,22,19.30
2010,06,04,16,23,20.90
2010,06,04,16,24,9.60
2010,06,04,16,25,19.30
2010,06,04,16,26,17.70
2010,06,04,16,27,11.30
2010,06,04,16,28,17.70
2010,06,04,16,29,17.70
2010,06,04,16,30,14.50
2010,06,04,16,31,14.50
2010,06,04,16,32,11.30
2010,06,04,16,33,24.20
2010,06,04,16,34,24.20
2010,06,04,16,35,12.90
2010,06,04,16,36,16.10
2010,06,04,16,37,17.70
2010,06,04,16,38,20.90
2010,06,04,16,39,9.60
2010,06,04,16,40,19.30
2010,06,04,16,41,11.30
2010,06,04,16,42,16.10
2010,06,04,16,43,17.70
2010,06,04,16,44,14.50
2010,06,04,16,45,16.10
2010,06,04,16,46,11.30
2010,06,04,16,47,9.60
2010,06,04,16,48,12.90
2010,06,04,16,49,14.50
2010,06,04,16,50,19.30
2010,06,04,16,51,12.90
2010,06,04,16,52,16.10
2010,06,04,16,53,16.10
2010,06,04,16,54,14.50
2010,06,04,16,55,16.10
2010,06,04,16,56,14.50
2010,06,04,16,57,25.70
2010,06,04,16,58,22.50
2010,06,04,16,59,11.30
2010,06,04,17,00,11.30
2010,06,04,17,01,19.30
2010,06,04,17,02,24.20
2010,06,04,17,03,20.90
2010,06,04,17,04,19.30
2010,06,04,17,05,14.50
2010,06,04,17,06,14.50
2010,06,04,17,07,27.40
2010,06,04,17,08,19.30
2010,06,04,17,09,16.10
2010,06,04,17,10,17.70
2010,06,04,17,11,22.50
2010,06,04,17,12,19.30
2010,06,04,17,13,16.10
2010,06,04,17,14,22.50
2010,06,04,17,15,17.70
2010,06,04,17,16,22.50
2010,06,04,17,17,19.30
2010,06,04,17,18,29.00
2010,06,04,17,19,24.20
2010,06,04,17,20,20.90
2010,06,04,17,21,24.20
2010,06,04,17,22,30.60
2010,06,04,17,23,22.50
2010,06,04,17,24,20.90
2010,06,04,17,25,22.50
2010,06,04,17,26,17.70
2010,06,04,17,27,20.90
2010,06,04,17,28,20.90
2010,06,04,17,29,22.50
2010,06,04,17,30,22.50
2010,06,04,17,31,19.30
2010,06,04,17,32,27.40
2010,06,04,17,33,22.50
2010,06,04,17,34,20.90
2010,06,04,17,35,19.30
2010,06,04,17,36,20.90
2010,06,04,17,37,19.30
2010,06,04,17,38,27.40
2010,06,04,17,39,22.50
2010,06,04,17,40,24.20
2010,06,04,17,41,19.30
2010,06,04,17,42,19.30
2010,06,04,17,43,12.90
2010,06,04,17,44,16.10
2010,06,04,17,45,22.50
2010,06,04,17,46,16.10
2010,06,04,17,47,17.70
2010,06,04,17,48,19.30
2010,06,04,17,49,20.90
2010,06,04,17,50,16.10
2010,06,04,17,51,27.40
2010,06,04,17,52,22.50
2010,06,04,17,53,11.30
2010,06,04,17,54,12.90
2010,06,04,17,55,16.10
2010,06,04,17,56,22.50
2010,06,04,17,57,17.70
2010,06,04,17,58,19.30
2010,06,04,17,59,22.50
2010,06,04,18,00,14.50
2010,06,04,18,01,12.90
2010,06,04,18,02,8.10
2010,06,04,18,03,17.70
2010,06,04,18,04,22.50
2010,06,04,18,05,20.90
2010,06,04,18,06,20.90
2010,06,04,18,07,19.30
2010,06,04,18,08,17.70
2010,06,04,18,09,22.50
2010,06,04,18,10,19.30
2010,06,04,18,11,17.70
2010,06,04,18,12,16.10
2010,06,04,18,13,14.50
2010,06,04,18,14,22.50
2010,06,04,18,15,17.70
2010,06,04,18,16,22.50
2010,06,04,18,17,24.20
2010,06,04,18,18,17.70
2010,06,04,18,19,24.20
2010,06,04,18,20,19.30
2010,06,04,18,21,20.90
2010,06,04,18,22,20.90
2010,06,04,18,23,19.30
2010,06,04,18,24,19.30
2010,06,04,18,25,17.70
2010,06,04,18,26,24.20
2010,06,04,18,27,24.20
2010,06,04,18,28,9.60
2010,06,04,18,29,17.70
2010,06,04,18,30,22.50
2010,06,04,18,31,25.70
2010,06,04,18,32,32.20
2010,06,04,18,33,27.40
2010,06,04,18,34,20.90
2010,06,04,18,35,19.30
2010,06,04,18,36,25.70
2010,06,04,18,37,27.40
2010,06,04,18,38,22.50
2010,06,04,18,39,27.40
2010,06,04,18,40,19.30
2010,06,04,18,41,24.20
2010,06,04,18,42,22.50
2010,06,04,18,43,32.20
2010,06,04,18,44,22.50
2010,06,04,18,45,20.90
2010,06,04,18,46,24.20
2010,06,04,18,47,30.60
2010,06,04,18,48,24.20
2010,06,04,18,49,20.90
2010,06,04,18,50,24.20
2010,06,04,18,51,27.40
2010,06,04,18,52,25.70
2010,06,04,18,53,27.40
2010,06,04,18,54,25.70
2010,06,04,18,55,25.70
2010,06,04,18,56,24.20
2010,06,04,18,57,32.20
2010,06,04,18,58,20.90
2010,06,04,18,59,22.50
2010,06,04,19,00,22.50
2010,06,04,19,01,19.30
2010,06,04,19,02,22.50
2010,06,04,19,03,17.70
2010,06,04,19,04,29.00
2010,06,04,19,05,20.90
2010,06,04,19,06,24.20
2010,06,04,19,07,20.90
2010,06,04,19,08,17.70
2010,06,04,19,09,20.90
2010,06,04,19,10,22.50
2010,06,04,19,11,16.10
2010,06,04,19,12,17.70
2010,06,04,19,13,16.10
2010,06,04,19,14,14.50
2010,06,04,19,15,14.50
2010,06,04,19,16,17.70
2010,06,04,19,17,16.10
2010,06,04,19,18,24.20
2010,06,04,19,19,19.30
2010,06,04,19,20,25.70
2010,06,04,19,21,19.30
2010,06,04,19,22,17.70
2010,06,04,19,23,22.50
2010,06,04,19,24,24.20
2010,06,04,19,25,20.90
2010,06,04,19,26,16.10
2010,06,04,19,27,19.30
2010,06,04,19,28,16.10
2010,06,04,19,29,16.10
2010,06,04,19,30,16.10
2010,06,04,19,31,27.40
2010,06,04,19,32,16.10
2010,06,04,19,33,9.60
2010,06,04,19,34,17.70
2010,06,04,19,35,16.10
2010,06,04,19,36,17.70
2010,06,04,19,37,19.30
2010,06,04,19,38,24.20
2010,06,04,19,39,19.30
2010,06,04,19,40,19.30
2010,06,04,19,41,17.70
2010,06,04,19,42,16.10
2010,06,04,19,43,20.90
2010,06,04,19,44,22.50
2010,06,04,19,45,14.50
2010,06,04,19,46,20.90
2010,06,04,19,47,22.50
2010,06,04,19,48,20.90
2010,06,04,19,49,16.10
2010,06,04,19,50,20.90
2010,06,04,19,51,19.30
2010,06,04,19,52,19.30
2010,06,04,19,53,19.30
2010,06,04,19,54,16.10
2010,06,04,19,55,16.10
2010,06,04,19,56,19.30
2010,06,04,19,57,19.30
2010,06,04,19,58,22.50
2010,06,04,19,59,17.70
2010,06,04,20,00,27.40
2010,06,04,20,01,17.70
2010,06,04,20,02,14.50
2010,06,04,20,03,29.00
2010,06,04,20,04,27.40
2010,06,04,20,05,14.50
2010,06,04,20,06,16.10
2010,06,04,20,07,25.70
2010,06,04,20,08,17.70
2010,06,04,20,09,22.50
2010,06,04,20,10,22.50
2010,06,04,20,11,25.70
2010,06,04,20,12,17.70
2010,06,04,20,13,17.70
2010,06,04,20,14,20.90
2010,06,04,20,15,19.30
2010,06,04,20,16,20.90
2010,06,04,20,17,20.90
2010,06,04,20,18,19.30
2010,06,04,20,19,19.30
2010,06,04,20,20,19.30
2010,06,04,20,21,14.50
2010,06,04,20,22,19.30
2010,06,04,20,23,16.10
2010,06,04,20,24,17.70
2010,06,04,20,25,17.70
2010,06,04,20,26,14.50
2010,06,04,20,27,20.90
2010,06,04,20,28,17.70
2010,06,04,20,29,16.10
2010,06,04,20,30,30.60
2010,06,04,20,31,16.10
2010,06,04,20,32,11.30
2010,06,04,20,33,16.10
2010,06,04,20,34,14.50
2010,06,04,20,35,16.10
2010,06,04,20,36,24.20
2010,06,04,20,37,11.30
2010,06,04,20,38,9.60
2010,06,04,20,39,19.30
2010,06,04,20,40,22.50
2010,06,04,20,41,14.50
2010,06,04,20,42,11.30
2010,06,04,20,43,9.60
2010,06,04,20,44,12.90
2010,06,04,20,45,9.60
2010,06,04,20,46,11.30
2010,06,04,20,47,20.90
2010,06,04,20,48,14.50
2010,06,04,20,49,8.10
2010,06,04,20,50,17.70
2010,06,04,20,51,11.30
2010,06,04,20,52,12.90
2010,06,04,20,53,19.30
2010,06,04,20,54,12.90
2010,06,04,20,55,6.40
2010,06,04,20,56,6.40
2010,06,04,20,57,6.40
2010,06,04,20,58,4.80
2010,06,04,20,59,6.40
2010,06,04,21,00,8.10
2010,06,04,21,01,4.80
2010,06,04,21,02,8.10
2010,06,04,21,03,6.40
2010,06,04,21,04,11.30
2010,06,04,21,05,6.40
2010,06,04,21,06,4.80
2010,06,04,21,07,9.60
2010,06,04,21,08,6.40
2010,06,04,21,09,14.50
2010,06,04,21,10,19.30
2010,06,04,21,11,16.10
2010,06,04,21,12,11.30
2010,06,04,21,13,16.10
2010,06,04,21,14,11.30
2010,06,04,21,15,16.10
2010,06,04,21,16,22.50
2010,06,04,21,17,9.60
2010,06,04,21,18,19.30
2010,06,04,21,19,17.70
2010,06,04,21,20,16.10
2010,06,04,21,21,20.90
2010,06,04,21,22,17.70
2010,06,04,21,23,14.50
2010,06,04,21,24,17.70
2010,06,04,21,25,17.70
2010,06,04,21,26,20.90
2010,06,04,21,27,19.30
2010,06,04,21,28,19.30
2010,06,04,21,29,11.30
2010,06,04,21,30,17.70
2010,06,04,21,31,19.30
2010,06,04,21,32,14.50
2010,06,04,21,33,19.30
2010,06,04,21,34,11.30
2010,06,04,21,35,19.30
2010,06,04,21,36,20.90
2010,06,04,21,37,14.50
2010,06,04,21,38,11.30
2010,06,04,21,39,11.30
2010,06,04,21,40,11.30
2010,06,04,21,41,14.50
2010,06,04,21,42,16.10
2010,06,04,21,43,17.70
2010,06,04,21,44,17.70
2010,06,04,21,45,11.30
2010,06,04,21,46,14.50
2010,06,04,21,47,19.30
2010,06,04,21,48,11.30
2010,06,04,21,49,17.70
2010,06,04,21,50,12.90
2010,06,04,21,51,14.50
2010,06,04,21,52,16.10
2010,06,04,21,53,22.50
2010,06,04,21,54,17.70
2010,06,04,21,55,19.30
2010,06,04,21,56,16.10
2010,06,04,21,57,17.70
2010,06,04,21,58,14.50
2010,06,04,21,59,16.10
2010,06,04,22,00,17.70
2010,06,04,22,01,12.90
2010,06,04,22,02,11.30
2010,06,04,22,03,8.10
2010,06,04,22,04,11.30
2010,06,04,22,05,17.70
2010,06,04,22,06,19.30
2010,06,04,22,07,12.90
2010,06,04,22,08,19.30
2010,06,04,22,09,16.10
2010,06,04,22,10,16.10
2010,06,04,22,11,16.10
2010,06,04,22,12,14.50
2010,06,04,22,13,19.30
2010,06,04,22,14,14.50
2010,06,04,22,15,17.70
2010,06,04,22,16,11.30
2010,06,04,22,17,17.70
2010,06,04,22,18,14.50
2010,06,04,22,19,14.50
2010,06,04,22,20,19.30
2010,06,04,22,21,17.70
2010,06,04,22,22,14.50
2010,06,04,22,23,9.60
2010,06,04,22,24,9.60
2010,06,04,22,25,14.50
2010,06,04,22,26,12.90
2010,06,04,22,27,4.80
2010,06,04,22,28,11.30
2010,06,04,22,29,19.30
2010,06,04,22,30,9.60
2010,06,04,22,31,11.30
2010,06,04,22,32,9.60
2010,06,04,22,33,16.10
2010,06,04,22,34,8.10
2010,06,04,22,35,8.10
2010,06,04,22,36,6.40
2010,06,04,22,37,8.10
2010,06,04,22,38,8.10
2010,06,04,22,39,9.60
2010,06,04,22,40,11.30
2010,06,04,22,41,11.30
2010,06,04,22,42,9.60
2010,06,04,22,43,8.10
2010,06,04,22,44,8.10
2010,06,04,22,45,3.20
2010,06,04,22,46,4.80
2010,06,04,22,47,9.60
2010,06,04,22,48,4.80
2010,06,04,22,49,8.10
2010,06,04,22,50,11.30
2010,06,04,22,51,16.10
2010,06,04,22,52,4.80
2010,06,04,22,53,6.40
2010,06,04,22,54,4.80
2010,06,04,22,55,11.30
2010,06,04,22,56,14.50
2010,06,04,22,57,6.40
2010,06,04,22,58,4.80
2010,06,04,22,59,6.40
2010,06,04,23,00,4.80
2010,06,04,23,01,4.80
2010,06,04,23,02,6.40
2010,06,04,23,03,14.50
2010,06,04,23,04,6.40
2010,06,04,23,05,9.60
2010,06,04,23,06,11.30
2010,06,04,23,07,4.80
2010,06,04,23,08,6.40
2010,06,04,23,09,6.40
2010,06,04,23,10,8.10
2010,06,04,23,11,9.60
2010,06,04,23,12,8.10
2010,06,04,23,13,9.60
2010,06,04,23,14,4.80
2010,06,04,23,15,9.60
2010,06,04,23,16,6.40
2010,06,04,23,17,6.40
2010,06,04,23,18,8.10
2010,06,04,23,19,6.40
2010,06,04,23,20,6.40
2010,06,04,23,21,6.40
2010,06,04,23,22,8.10
2010,06,04,23,23,11.30
2010,06,04,23,24,9.60
2010,06,04,23,25,8.10
2010,06,04,23,26,8.10
2010,06,04,23,27,9.60
2010,06,04,23,28,4.80
2010,06,04,23,29,3.20
2010,06,04,23,30,3.20
2010,06,04,23,31,4.80
2010,06,04,23,32,4.80
2010,06,04,23,33,6.40
2010,06,04,23,34,3.20
2010,06,04,23,35,3.20
2010,06,04,23,36,8.10
2010,06,04,23,37,8.10
2010,06,04,23,38,9.60
2010,06,04,23,39,11.30
2010,06,04,23,40,4.80
2010,06,04,23,41,8.10
2010,06,04,23,42,16.10
2010,06,04,23,43,12.90
2010,06,04,23,44,8.10
2010,06,04,23,45,8.10
2010,06,04,23,46,11.30
2010,06,04,23,47,6.40
2010,06,04,23,48,8.10
2010,06,04,23,49,6.40
2010,06,04,23,50,8.10
2010,06,04,23,51,6.40
2010,06,04,23,52,4.80
2010,06,04,23,53,4.80
2010,06,04,23,54,9.60
2010,06,04,23,55,6.40
2010,06,04,23,56,6.40
2010,06,04,23,57,9.60
2010,06,04,23,58,6.40
2010,06,04,23,59,4.80
